Location: Chicago
(41.8500°N, 87.6500°W)
Time: 07:00:38
(UTC-06:00)

Amateur Radio Satellites - All Passes

Search period start: 23 November 2017 06:30
Search period end: 24 November 2017 06:30
Location: Chicago, 41.8500°N, 87.6500°W

Satellite Date Start Highest point End Downlink Frequencies (MHz)
Time Altitude Azimuth
XW-2B 23 Nov 06:31:05 06:34:40 40° 287° (WNW) 06:38:15 145.730 - 145.750
NUDT-PHONESAT 23 Nov 06:36:12 06:39:47 49° 286° (WNW) 06:43:22 437.300
SEEDS 23 Nov 06:40:59 06:44:49 32° 97° (E) 06:48:38 437.485
AAUSAT CUBESAT 2 23 Nov 06:42:08 06:44:24 14° 91° (E) 06:46:40 437.432
CUTE-I 23 Nov 06:50:06 06:55:19 52° 289° (WNW) 07:00:29 437.470
UWE-3 23 Nov 06:50:25 06:53:35 21° 94° (E) 06:56:45 435.000/436.395/437.385
XW-2C 23 Nov 06:57:26 07:00:17 20° 292° (WNW) 07:03:08 145.795 - 145.815
PCSat 23 Nov 06:59:35 07:02:58 16° 40° (NE) 07:06:20 145.827
LilacSat-2 23 Nov 07:02:31 07:05:04 17° 293° (WNW) 07:07:36 437.200
XW-2F 23 Nov 07:06:15 07:08:48 17° 293° (WNW) 07:11:22 145.980 - 146.000
XW-2A 23 Nov 07:23:14 07:26:29 44° 99° (E) 07:29:43 145.665 - 145.685
AO-73 23 Nov 07:25:04 07:28:26 23° 95° (E) 07:31:48 145.935
STRAND 1 23 Nov 07:30:56 07:35:08 25° 266° (W) 07:39:21 437.568
KAITUO 1B 23 Nov 07:31:06 07:32:35 12° 296° (WNW) 07:34:04 145.475/437.950
CUBEBUG 2 23 Nov 07:34:04 07:38:12 66° 285° (WNW) 07:42:18 437.445
Oscar 11 23 Nov 07:38:55 07:42:24 23° 94° (E) 07:45:52 .
UNISAT 6 23 Nov 07:40:13 07:43:06 17° 64° (ENE) 07:45:56 437.425
YUBILEINY 23 Nov 07:41:36 07:46:16 15° 303° (WNW) 07:50:59 435.215
TIGRISAT 23 Nov 07:43:56 07:46:48 17° 65° (ENE) 07:49:37 435.000
CUTE 1.7 + AOD 2 23 Nov 07:50:51 07:54:24 26° 291° (WNW) 07:57:57 437.475
ZACube-1 23 Nov 08:11:01 08:15:11 89° 293° (WNW) 08:19:23 437.345
FO-29 23 Nov 08:13:09 08:19:41 55° 262° (W) 08:27:01 435.910
AAUSAT CUBESAT 2 23 Nov 08:16:04 08:20:06 48° 287° (WNW) 08:24:08 437.432
HO-68 23 Nov 08:16:07 08:22:36 38° 297° (WNW) 08:29:02 435.675
SEEDS 23 Nov 08:17:00 08:20:18 22° 293° (WNW) 08:23:36 437.485
DELFI C3 23 Nov 08:26:16 08:28:33 15° 92° (E) 08:30:49 145.870
UWE-3 23 Nov 08:26:25 08:30:05 31° 290° (WNW) 08:33:44 435.000/436.395/437.385
PCSat 23 Nov 08:41:43 08:47:11 86° 60° (ENE) 08:52:36 145.827
EO-88 23 Nov 08:55:41 08:57:44 14° 92° (E) 08:59:46 145.990 - 145.960
XW-2A 23 Nov 08:58:03 08:58:46 11° 295° (WNW) 08:59:29 145.665 - 145.685
FALCONSAT 3 23 Nov 08:59:09 09:02:01 22° 166° (SSE) 09:04:54 435.103
AO-73 23 Nov 09:01:05 09:04:38 28° 291° (WNW) 09:08:13 145.935
Max Valier Satellite 23 Nov 09:01:59 09:05:03 25° 95° (E) 09:08:08 145.860
Oscar 11 23 Nov 09:14:43 09:18:33 31° 290° (WNW) 09:22:22 .
UNISAT 6 23 Nov 09:14:59 09:19:25 50° 260° (W) 09:23:47 437.425
TIGRISAT 23 Nov 09:18:40 09:23:05 50° 260° (W) 09:27:27 435.000
PRISM 23 Nov 09:30:39 09:34:47 86° 76° (ENE) 09:38:58 437.425
BEESAT 3 23 Nov 09:48:51 09:52:14 26° 48° (NE) 09:55:33 437.485
DELFI C3 23 Nov 09:59:41 10:03:29 42° 287° (WNW) 10:07:14 145.870
DUCHIFAT 1 23 Nov 10:00:36 10:03:05 16° 64° (ENE) 10:05:35 145.980
AO-85 23 Nov 10:07:59 10:08:28 10° 34° (NE) 10:08:58 145.980
EO-79 23 Nov 10:09:51 10:13:19 25° 68° (ENE) 10:16:46 145.935-145.965
NANOSAT C BR1 23 Nov 10:11:37 10:14:56 23° 67° (ENE) 10:18:16 145.865
AIST 2D 23 Nov 10:17:27 10:20:53 89° 76° (ENE) 10:24:23 435.315
POLYITAN 1 23 Nov 10:25:22 10:29:15 36° 71° (ENE) 10:33:07 437.675
PCSat 23 Nov 10:27:30 10:29:47 13° 258° (WSW) 10:32:03 145.827
EO-88 23 Nov 10:28:08 10:31:30 35° 288° (WNW) 10:34:51 145.990 - 145.960
Max Valier Satellite 23 Nov 10:35:56 10:38:44 21° 291° (WNW) 10:41:32 145.860
FALCONSAT 3 23 Nov 10:37:21 10:40:38 30° 181° (S) 10:43:53 435.103
LO-87 23 Nov 10:44:38 10:47:58 38° 98° (E) 10:51:15 145.935 - 145.965
BUGSAT 1 23 Nov 10:44:41 10:46:08 12° 62° (ENE) 10:47:33 437.445
ESTCUBE 1 23 Nov 10:48:21 10:52:27 32° 97° (E) 10:56:32 437.505/2401.250
QB50P2 23 Nov 10:48:29 10:52:43 74° 75° (ENE) 10:56:57 145.880/145.840
BEESAT 2 23 Nov 11:05:49 11:09:44 46° 53° (NE) 11:13:34 435.950
Oscar 19 23 Nov 11:06:55 11:09:41 15° 60° (ENE) 11:12:29 437.125/150
BEESAT 3 23 Nov 11:26:19 11:29:44 29° 245° (WSW) 11:33:05 437.485
DUCHIFAT 1 23 Nov 11:34:17 11:38:21 48° 260° (W) 11:42:26 145.980
SPROUT 23 Nov 11:36:44 11:40:16 25° 95° (E) 11:43:45 437.525
AO-91 23 Nov 11:41:44 11:46:20 30° 67° (ENE) 11:50:55 145.960
EO-79 23 Nov 11:45:16 11:48:57 28° 264° (W) 11:52:38 145.935-145.965
AO-85 23 Nov 11:45:17 11:49:52 51° 53° (NE) 11:54:46 145.980
NANOSAT C BR1 23 Nov 11:46:43 11:50:28 31° 263° (W) 11:54:14 145.865
Gurwin Techsat 1B 23 Nov 11:49:57 11:54:20 27° 65° (ENE) 11:58:45 435.225
POLYITAN 1 23 Nov 12:02:03 12:05:07 19° 266° (W) 12:08:12 437.675
AO-7 23 Nov 12:11:42 12:16:26 17° 47° (NE) 12:21:11 .
FALCONSAT 3 23 Nov 12:16:26 12:19:12 20° 196° (SSW) 12:21:58 435.103
BUGSAT 1 23 Nov 12:16:45 12:20:55 67° 259° (WSW) 12:25:04 437.445
LO-87 23 Nov 12:19:17 12:21:01 13° 294° (WNW) 12:22:45 145.935 - 145.965
O/OREOS (USA 219) 23 Nov 12:24:03 12:28:30 51° 108° (ESE) 12:32:58 437.305
ESTCUBE 1 23 Nov 12:25:24 12:29:05 25° 293° (WNW) 12:32:46 437.505/2401.250
VELOX 1 23 Nov 12:34:01 12:38:29 68° 102° (ESE) 12:42:53 145.980
Oscar 19 23 Nov 12:43:16 12:48:22 74° 257° (WSW) 12:53:31 437.125/150
BEESAT 2 23 Nov 12:44:35 12:47:04 16° 250° (WSW) 12:49:31 435.950
NO-84 23 Nov 13:01:18 13:03:37 16° 124° (SE) 13:06:02 435.350 FM
ITAMSAT 1 23 Nov 13:05:49 13:07:45 12° 57° (ENE) 13:09:42 435.822/435.867
M-CUBED/EXP-1 PRIME 23 Nov 13:11:15 13:14:43 46° 67° (ENE) 13:18:29 437.505
DX 1 23 Nov 13:11:39 13:15:44 37° 98° (E) 13:19:47 434.975-435.025
SPROUT 23 Nov 13:12:29 13:16:06 28° 291° (WNW) 13:19:42 437.525
AO-91 23 Nov 13:17:34 13:22:34 39° 263° (W) 13:27:36 145.960
50 SAT 23 Nov 13:20:46 13:23:56 54° 101° (E) 13:27:04 437.505
AO-85 23 Nov 13:26:25 13:30:01 21° 248° (WSW) 13:33:47 145.980
Gurwin Techsat 1B 23 Nov 13:29:06 13:34:04 40° 262° (W) 13:39:05 435.225
UKube-1 23 Nov 13:48:07 13:52:24 59° 101° (ESE) 13:56:39 .
YUBILEINY 23 Nov 13:55:44 13:58:29 12° 54° (NE) 14:01:13 435.215
AO-7 23 Nov 13:59:32 14:07:43 69° 67° (ENE) 14:15:57 .
O/OREOS (USA 219) 23 Nov 14:05:01 14:08:14 18° 306° (NW) 14:11:26 437.305
MOZHAYETS 4 23 Nov 14:05:58 14:09:03 18° 92° (E) 14:12:07
BEESAT 23 Nov 14:07:14 14:09:34 13° 90° (E) 14:11:53 436.000
VELOX 1 23 Nov 14:12:20 14:14:20 13° 299° (WNW) 14:16:21 145.980
ITUPSAT 1 23 Nov 14:18:03 14:21:11 17° 92° (E) 14:24:18 437.325
NO-84 23 Nov 14:36:53 14:40:28 58° 322° (NW) 14:44:23 435.350 FM
ITAMSAT 1 23 Nov 14:41:09 14:46:23 85° 75° (ENE) 14:51:39 435.822/435.867
M-CUBED/EXP-1 PRIME 23 Nov 14:47:59 14:49:29 12° 265° (W) 14:51:01 437.505
DX 1 23 Nov 14:48:23 14:51:39 21° 295° (WNW) 14:54:54 434.975-435.025
UKube-1 23 Nov 15:25:41 15:27:55 14° 298° (WNW) 15:30:08 .
MOZHAYETS 4 23 Nov 15:42:03 15:46:25 45° 288° (WNW) 15:50:46
BEESAT 23 Nov 15:43:03 15:47:46 64° 287° (WNW) 15:52:27 436.000
YUBILEINY 23 Nov 15:48:47 15:57:32 59° 77° (ENE) 16:06:10 435.215
RS-15 23 Nov 15:51:11 15:57:37 16° 95° (E) 16:04:02 29.354- 29.394
DOVE 4 23 Nov 15:52:44 15:57:47 70° 74° (ENE) 16:03:03 437.250
AO-7 23 Nov 15:54:26 16:01:04 26° 266° (W) 16:07:46 .
ITUPSAT 1 23 Nov 15:54:40 15:59:16 50° 289° (WNW) 16:03:51 437.325
CUBESAT XI-V 23 Nov 16:00:21 16:05:02 66° 101° (E) 16:09:42 437.345
XW-2C 23 Nov 16:05:24 16:07:34 15° 66° (ENE) 16:09:45 145.795 - 145.815
LilacSat-2 23 Nov 16:10:16 16:12:54 18° 67° (ENE) 16:15:33 437.200
XW-2F 23 Nov 16:13:13 16:15:40 17° 67° (ENE) 16:18:08 145.980 - 146.000
NO-84 23 Nov 16:15:56 16:18:34 17° 343° (NNW) 16:21:17 435.350 FM
ITAMSAT 1 23 Nov 16:24:48 16:26:29 11° 271° (W) 16:28:10 435.822/435.867
CUTE-I 23 Nov 16:32:47 16:37:35 35° 67° (ENE) 16:42:26 437.470
KAITUO 1B 23 Nov 16:35:43 16:38:43 24° 69° (ENE) 16:41:43 145.475/437.950
XW-2D 23 Nov 16:56:56 17:00:38 65° 75° (ENE) 17:04:21 145.860 - 145.880
HO-68 23 Nov 16:57:22 17:03:40 34° 62° (ENE) 17:09:58 435.675
CUBEBUG 2 23 Nov 16:59:03 17:00:10 11° 62° (ENE) 17:01:15 437.445
CUTE 1.7 + AOD 2 23 Nov 17:08:14 17:11:21 21° 67° (ENE) 17:14:30 437.475
XW-2B 23 Nov 17:11:50 17:15:34 85° 258° (WSW) 17:19:20 145.730 - 145.750
KKS-1 23 Nov 17:14:05 17:18:35 85° 104° (ESE) 17:23:01 437.445
NUDT-PHONESAT 23 Nov 17:14:47 17:18:24 71° 76° (ENE) 17:22:03 437.300
STARS 23 Nov 17:30:32 17:34:49 50° 100° (E) 17:39:03 437.465
SEEDS 23 Nov 17:33:04 17:36:22 23° 68° (ENE) 17:39:42 437.485
DOVE 4 23 Nov 17:33:12 17:35:59 15° 272° (W) 17:38:48 437.250
AAUSAT CUBESAT 2 23 Nov 17:34:18 17:34:57 10° 62° (ENE) 17:35:36 437.432
XW-2C 23 Nov 17:37:56 17:41:25 37° 262° (W) 17:44:56 145.795 - 145.815
CUBESAT XI-V 23 Nov 17:39:20 17:41:50 14° 298° (WNW) 17:44:21 437.345
LilacSat-2 23 Nov 17:43:37 17:46:57 30° 263° (W) 17:50:18 437.200
XW-2F 23 Nov 17:46:10 17:49:30 32° 263° (W) 17:52:53 145.980 - 146.000
YUBILEINY 23 Nov 17:46:23 17:53:45 31° 277° (W) 18:01:06 435.215
UWE-3 23 Nov 17:47:47 17:50:55 20° 67° (ENE) 17:54:01 435.000/436.395/437.385
NO-84 23 Nov 17:55:16 17:57:17 13° 5° (N) 17:59:19 435.350 FM
XW-2A 23 Nov 17:55:24 17:57:26 16° 68° (ENE) 17:59:29 145.665 - 145.685
RS-15 23 Nov 17:55:37 18:07:46 70° 116° (ESE) 18:19:54 29.354- 29.394
STRAND 1 23 Nov 18:02:59 18:05:13 13° 89° (E) 18:07:26 437.568
KAITUO 1B 23 Nov 18:09:43 18:12:37 22° 265° (W) 18:15:32 145.475/437.950
CUTE-I 23 Nov 18:12:54 18:17:37 31° 264° (W) 18:22:22 437.470
AO-73 23 Nov 18:21:05 18:24:11 20° 67° (ENE) 18:27:15 145.935
CUBEBUG 2 23 Nov 18:31:34 18:36:09 82° 258° (WSW) 18:40:36 437.445
ISS 23 Nov 18:34:16 18:35:53 13° 130° (SE) 18:37:31 437.550
Oscar 11 23 Nov 18:34:22 18:37:24 19° 66° (ENE) 18:40:27 .
CUTE 1.7 + AOD 2 23 Nov 18:43:08 18:46:57 34° 263° (W) 18:50:49 437.475
HO-68 23 Nov 18:44:14 18:51:08 49° 260° (W) 18:58:05 435.675
KKS-1 23 Nov 18:53:36 18:54:24 10° 301° (WNW) 18:55:13 437.445
AAUSAT CUBESAT 2 23 Nov 19:05:39 19:09:46 74° 258° (WSW) 19:13:56 437.432
ZACube-1 23 Nov 19:06:34 19:10:51 71° 76° (ENE) 19:15:04 437.345
STARS 23 Nov 19:08:01 19:10:44 16° 297° (WNW) 19:13:26 437.465
SEEDS 23 Nov 19:08:14 19:11:54 29° 264° (W) 19:15:35 437.485
nSIGHT-1 23 Nov 19:15:35 19:18:38 41° 139° (SE) 19:21:42 .
FO-29 23 Nov 19:22:55 19:29:24 28° 90° (E) 19:35:30 435.910
UWE-3 23 Nov 19:22:58 19:27:07 39° 262° (W) 19:31:11 435.000/436.395/437.385
XW-2A 23 Nov 19:27:04 19:29:55 27° 263° (W) 19:32:48 145.665 - 145.685
NO-84 23 Nov 19:32:20 19:35:50 25° 25° (NNE) 19:39:22 435.350 FM
STRAND 1 23 Nov 19:39:50 19:44:57 75° 286° (WNW) 19:50:02 437.568
Max Valier Satellite 23 Nov 19:42:22 19:43:57 12° 65° (ENE) 19:45:32 145.860
AO-73 23 Nov 19:56:15 20:00:11 36° 263° (W) 20:04:04 145.935
ISS 23 Nov 20:08:42 20:11:58 73° 328° (NNW) 20:15:14 437.550
Oscar 11 23 Nov 20:09:14 20:13:15 39° 262° (W) 20:17:18 .
RS-15 23 Nov 20:09:37 20:21:10 43° 321° (NW) 20:32:37 29.354- 29.394
SO-50 23 Nov 20:43:40 20:48:03 62° 120° (ESE) 20:52:31 436.795
DELFI C3 23 Nov 20:44:19 20:48:16 76° 259° (W) 20:52:17 145.870
nSIGHT-1 23 Nov 20:52:05 20:54:56 29° 336° (NNW) 20:57:48 .
O/OREOS (USA 219) 23 Nov 20:56:11 20:58:15 13° 50° (NE) 21:00:19 437.305
EO-88 23 Nov 21:05:08 21:08:44 86° 258° (WSW) 21:12:23 145.990 - 145.960
UNISAT 6 23 Nov 21:06:23 21:10:10 30° 96° (E) 21:13:55 437.425
FO-29 23 Nov 21:07:08 21:14:52 62° 290° (WNW) 21:22:03 435.910
NO-84 23 Nov 21:09:19 21:13:35 76° 222° (SW) 21:17:49 435.350 FM
TIGRISAT 23 Nov 21:09:56 21:13:41 30° 96° (E) 21:17:25 435.000
PRISM 23 Nov 21:13:44 21:15:04 11° 90° (E) 21:16:24 437.425
Max Valier Satellite 23 Nov 21:13:52 21:17:22 44° 261° (W) 21:20:53 145.860
LO-87 23 Nov 21:21:22 21:23:47 17° 67° (ENE) 21:26:12 145.935 - 145.965
STRAND 1 23 Nov 21:22:55 21:23:12 10° 304° (WNW) 21:23:30 437.568
ISS 23 Nov 21:46:26 21:48:53 19° 345° (NNW) 21:51:20 437.550
ESTCUBE 1 23 Nov 21:48:05 21:52:00 31° 69° (ENE) 21:55:57 437.505/2401.250
SO-50 23 Nov 22:25:43 22:28:55 19° 319° (NW) 22:32:10 436.795
RS-15 23 Nov 22:28:49 22:38:07 24° 354° (N) 22:47:11 29.354- 29.394
nSIGHT-1 23 Nov 22:30:03 22:31:56 14° 356° (N) 22:33:49 .
SPROUT 23 Nov 22:30:25 22:33:37 21° 66° (ENE) 22:36:50 437.525
O/OREOS (USA 219) 23 Nov 22:33:43 22:38:16 79° 249° (WSW) 22:42:46 437.305
QB50P2 23 Nov 22:35:08 22:36:30 11° 90° (E) 22:37:52 145.880/145.840
UNISAT 6 23 Nov 22:43:21 22:46:44 23° 293° (WNW) 22:50:06 437.425
PRISM 23 Nov 22:46:36 22:50:43 60° 286° (WNW) 22:54:46 437.425
TIGRISAT 23 Nov 22:46:51 22:50:14 23° 293° (WNW) 22:53:36 435.000
NO-84 23 Nov 22:49:24 22:50:16 10° 239° (WSW) 22:51:06 435.350 FM
LO-87 23 Nov 22:53:45 22:56:57 29° 263° (W) 23:00:09 145.935 - 145.965
FO-29 23 Nov 22:54:37 22:58:16 14° 310° (NW) 23:01:51 435.910
AIST 2D 23 Nov 23:14:42 23:18:14 77° 285° (WNW) 23:21:46 435.315
DUCHIFAT 1 23 Nov 23:18:04 23:21:28 24° 95° (E) 23:24:51 145.980
PCSat 23 Nov 23:23:17 23:28:41 76° 117° (ESE) 23:34:07 145.827
ISS 23 Nov 23:24:15 23:26:17 15° 6° (N) 23:28:19 437.550
ESTCUBE 1 23 Nov 23:25:05 23:28:47 25° 265° (W) 23:32:32 437.505/2401.250
EO-79 23 Nov 23:28:49 23:32:49 41° 99° (E) 23:36:46 145.935-145.965
NANOSAT C BR1 23 Nov 23:30:03 23:33:57 37° 98° (E) 23:37:49 145.865
VELOX 1 23 Nov 23:31:03 23:35:24 61° 73° (ENE) 23:39:49 145.980
POLYITAN 1 23 Nov 23:44:53 23:49:03 64° 102° (ESE) 23:53:12 437.675
50 SAT 23 Nov 23:48:31 23:50:43 17° 68° (ENE) 23:52:55 437.505
BUGSAT 1 23 Nov 23:59:12 00:01:41 16° 92° (E) 00:04:09 437.445
SPROUT 24 Nov 00:05:20 00:09:16 35° 263° (W) 00:13:13 437.525
nSIGHT-1 24 Nov 00:06:35 00:09:04 20° 17° (NNE) 00:11:32 .
DX 1 24 Nov 00:07:14 00:11:10 34° 69° (ENE) 00:15:08 434.975-435.025
QB50P2 24 Nov 00:08:31 00:12:40 60° 286° (WNW) 00:16:47 145.880/145.840
UKube-1 24 Nov 00:42:25 00:46:36 51° 72° (ENE) 00:50:49 .
RS-15 24 Nov 00:45:15 00:55:47 33° 29° (NNE) 01:05:49 29.354- 29.394
DUCHIFAT 1 24 Nov 00:53:32 00:57:06 28° 291° (WNW) 01:00:38 145.980
Oscar 19 24 Nov 00:54:35 00:59:22 37° 98° (E) 01:04:09 437.125/150
ISS 24 Nov 01:00:28 01:03:29 33° 25° (NNE) 01:06:29 437.550
EO-79 24 Nov 01:05:29 01:08:14 17° 295° (WNW) 01:10:59 145.935-145.965
NANOSAT C BR1 24 Nov 01:06:26 01:09:22 19° 294° (WNW) 01:12:17 145.865
AO-91 24 Nov 01:08:00 01:12:19 46° 98° (E) 01:16:09 145.960
MOZHAYETS 4 24 Nov 01:08:19 01:11:27 19° 65° (ENE) 01:14:35
PCSat 24 Nov 01:08:46 01:12:41 20° 317° (NW) 01:16:35 145.827
VELOX 1 24 Nov 01:10:17 01:12:14 13° 270° (W) 01:14:11 145.980
BEESAT 24 Nov 01:13:40 01:16:49 18° 63° (ENE) 01:19:59 436.000
BEESAT 3 24 Nov 01:15:07 01:18:48 38° 116° (ESE) 01:22:32 437.485
50 SAT 24 Nov 01:19:59 01:22:37 23° 264° (W) 01:25:15 437.505
POLYITAN 1 24 Nov 01:22:41 01:24:17 12° 298° (WNW) 01:25:53 437.675
ITUPSAT 1 24 Nov 01:24:55 01:28:34 22° 65° (ENE) 01:32:14 437.325
BUGSAT 1 24 Nov 01:33:27 01:37:13 39° 289° (WNW) 01:40:56 437.445
nSIGHT-1 24 Nov 01:42:27 01:45:39 88° 44° (NE) 01:48:50 .
DX 1 24 Nov 01:44:01 01:47:25 22° 266° (W) 01:50:49 434.975-435.025
Gurwin Techsat 1B 24 Nov 01:44:27 01:49:48 78° 103° (ESE) 01:55:07 435.225
AO-7 24 Nov 02:02:05 02:07:59 21° 92° (E) 02:13:50 .
AO-85 24 Nov 02:03:15 02:04:31 11° 108° (ESE) 02:05:49 145.980
UKube-1 24 Nov 02:20:32 02:22:54 14° 268° (W) 02:25:17 .
M-CUBED/EXP-1 PRIME 24 Nov 02:22:31 02:26:49 37° 103° (ESE) 02:31:07 437.505
BEESAT 2 24 Nov 02:33:51 02:37:51 78° 121° (ESE) 02:41:55 435.950
Oscar 19 24 Nov 02:34:12 02:38:31 28° 294° (WNW) 02:42:51 437.125/150
ISS 24 Nov 02:36:58 02:39:57 33° 223° (SW) 02:42:56 437.550
MOZHAYETS 4 24 Nov 02:43:52 02:48:15 46° 261° (W) 02:52:39
AO-91 24 Nov 02:45:30 02:48:16 16° 298° (WNW) 02:50:52 145.960
BEESAT 24 Nov 02:49:30 02:54:10 53° 260° (W) 02:58:50 436.000
BEESAT 3 24 Nov 02:53:16 02:56:27 22° 314° (NW) 02:59:39 437.485
ITAMSAT 1 24 Nov 02:54:09 02:58:39 29° 96° (E) 03:03:05 435.822/435.867
RS-15 24 Nov 02:58:15 03:10:13 85° 57° (ENE) 03:21:28 29.354- 29.394
YUBILEINY 24 Nov 03:00:43 03:03:16 12° 72° (ENE) 03:05:49 435.215
ITUPSAT 1 24 Nov 03:01:37 03:06:07 41° 261° (W) 03:10:39 437.325
CUBESAT XI-V 24 Nov 03:03:35 03:08:07 65° 75° (ENE) 03:12:43 437.345
nSIGHT-1 24 Nov 03:20:59 03:21:24 10° 231° (SW) 03:21:47 .
Gurwin Techsat 1B 24 Nov 03:26:08 03:29:04 15° 301° (WNW) 03:32:00 435.225
SO-50 24 Nov 03:35:55 03:37:33 12° 34° (NE) 03:39:11 436.795
AO-85 24 Nov 03:40:28 03:44:18 59° 305° (NW) 03:48:20 145.980
DOVE 4 24 Nov 03:52:32 03:56:14 20° 91° (E) 03:59:47 437.250
AO-7 24 Nov 03:53:13 04:01:36 84° 290° (WNW) 04:09:59 .
M-CUBED/EXP-1 PRIME 24 Nov 03:57:14 04:00:58 25° 298° (WNW) 04:04:45 437.505
KKS-1 24 Nov 04:11:54 04:16:22 81° 77° (ENE) 04:20:53 437.445
BEESAT 2 24 Nov 04:13:56 04:16:06 14° 320° (NW) 04:18:17 435.950
STARS 24 Nov 04:27:00 04:31:13 46° 71° (ENE) 04:35:28 437.465
ITAMSAT 1 24 Nov 04:33:24 04:38:07 36° 293° (WNW) 04:42:48 435.822/435.867
CUBESAT XI-V 24 Nov 04:43:59 04:45:56 12° 271° (W) 04:47:54 437.345
YUBILEINY 24 Nov 04:49:34 04:58:12 67° 92° (E) 05:06:55 435.215
CUTE-I 24 Nov 04:51:08 04:53:26 13° 89° (E) 04:55:44 437.470
XW-2C 24 Nov 05:10:14 05:13:06 20° 94° (E) 05:15:58 145.795 - 145.815
RS-15 24 Nov 05:12:21 05:21:03 26° 259° (W) 05:29:29 29.354- 29.394
SO-50 24 Nov 05:14:20 05:18:57 61° 54° (NE) 05:23:36 436.795
LilacSat-2 24 Nov 05:16:07 05:19:22 25° 95° (E) 05:22:35 437.200
XW-2F 24 Nov 05:17:38 05:20:41 23° 95° (E) 05:23:43 145.980 - 146.000
STRAND 1 24 Nov 05:18:29 05:22:15 21° 63° (ENE) 05:26:01 437.568
DOVE 4 24 Nov 05:29:14 05:34:11 48° 289° (WNW) 05:38:51 437.250
FO-29 24 Nov 05:37:44 05:41:12 14° 51° (NE) 05:44:48 435.910
KAITUO 1B 24 Nov 05:39:24 05:42:49 31° 97° (E) 05:46:13 145.475/437.950
AO-7 24 Nov 05:47:31 05:53:12 21° 310° (NW) 05:58:53 .
XW-2D 24 Nov 06:02:46 06:06:35 86° 280° (W) 06:10:25 145.860 - 145.880
STARS 24 Nov 06:04:57 06:07:46 17° 267° (W) 06:10:37 437.465
HO-68 24 Nov 06:11:34 06:17:57 33° 96° (E) 06:24:16 435.675
XW-2B 24 Nov 06:17:46 06:21:32 58° 285° (WNW) 06:25:18 145.730 - 145.750
NUDT-PHONESAT 24 Nov 06:17:53 06:21:36 85° 287° (WNW) 06:25:20 437.300
CUBEBUG 2 24 Nov 06:22:54 06:25:50 19° 93° (E) 06:28:46 437.445
